sat.trackr.live / text

‹ back to catalog

STARLINK-35090

NORAD 65698 · 2025-212Y

PAYLOAD ACTIVE UNKNOWN

§ Identity

Operator
Country
US
Launch date
2025-09-21
Launch site
AFETR
Launch vehicle
Mass (kg)
RCS (m²)

Purposes: comms

External: N2YO · Heavens-Above · Gunter

§ Orbital elements

Epoch: 2026-05-24T20:24:10.895904Z

Period
94.10 min
Inclination
53.1604°
Eccentricity
0.0001192
Mean motion
15.30210861 rev/d
Perigee alt
474.4 km
Apogee alt
476.0 km
Semi-major
6,853.3 km
B*
7.7118e-4
RAAN
351.9434°
Arg perigee
86.5754°
Mean anomaly
273.5383°
Rev number
3,890

§ Raw data

STARLINK-350901 65698U 25212Y   26144.85012611  .00022558  00000+0  77118-3 0  99952 65698  53.1604 351.9434 0001192  86.5754 273.5383 15.30210861 38900

JSON: /api/v1/satellites/65698 · /tle

For live sub-satellite position, see the globe view (requires WebGL).

§ Visibility from observer

Set your observer location to see the next 7 days of passes ≥ 10°. The values pass through the URL so the page stays shareable.

No JS? Fill the form by hand. The geolocation button needs JavaScript.